Theta_e
311 311 311 312 312 312 312 312 313 313 313 313 313 314 314 314 311 304 299 305 307 313 309 305 303 304 303 298 302 305 292 287 291 295 299 306 306 312 315 313 319 324 322 326 329
311 310 311 311 311 311 312 312 312 312 312 313 313 313 313 312 303 299 306 310 313 312 305 301 299 300 296 295 297 295 288 288 294 296 299 304 307 309 310 312 315 319 324 327 328
310 310 311 310 310 311 311 312 312 312 312 313 313 313 313 308 295 297 308 312 314 312 307 303 301 299 294 296 293 294 288 290 291 295 299 301 303 308 308 308 313 315 321 322 325
309 310 310 310 310 311 311 312 312 312 313 313 312 312 311 303 288 301 307 310 311 309 305 301 298 293 291 290 293 287 290 291 293 294 293 295 304 304 307 311 313 315 322 321 322
309 309 310 310 310 311 311 311 311 312 313 312 311 311 305 296 296 305 308 307 305 304 300 297 295 293 288 290 291 287 290 292 292 293 293 296 298 302 304 312 319 319 319 321 321
309 309 309 309 310 310 311 311 311 312 312 310 310 310 301 292 304 305 306 305 306 304 302 300 296 295 291 291 289 291 291 291 292 293 294 293 296 301 305 310 318 318 318 319 321
309 309 309 309 309 310 310 311 312 311 309 309 310 307 299 296 306 307 306 305 307 305 300 303 301 294 294 290 294 292 288 289 290 291 292 298 293 297 306 308 312 310 312 317 321
308 308 309 309 309 310 310 311 310 308 308 309 312 305 295 305 308 303 306 306 309 307 305 305 303 296 293 295 292 288 289 284 288 290 293 295 288 299 306 306 308 309 308 309 311
308 308 308 309 309 310 310 309 306 306 308 312 305 300 293 305 299 302 306 303 305 304 304 305 301 294 294 288 284 287 282 284 286 292 293 291 287 303 308 306 307 309 309 310 310
307 308 308 308 309 309 309 304 303 302 305 305 301 295 297 293 298 300 306 305 302 300 298 297 296 290 290 286 278 280 281 286 285 291 290 290 288 301 306 305 304 307 309 308 310
307 308 308 308 308 309 302 296 292 290 295 290 290 290 293 297 301 302 304 302 301 297 291 293 288 285 288 288 287 285 283 284 287 293 289 288 296 299 304 305 303 305 307 307 309
307 307 307 307 309 305 300 293 292 294 287 292 292 292 294 296 293 299 304 297 295 291 294 290 286 289 290 289 287 286 286 285 291 294 291 291 293 298 301 302 304 303 305 307 306
307 306 306 307 304 301 297 295 300 298 289 287 288 289 292 294 293 295 299 296 293 291 291 287 290 290 289 290 289 289 289 290 289 295 295 292 288 295 298 299 298 299 303 306 306
306 306 306 305 298 298 294 298 301 298 286 282 286 290 293 294 291 297 299 296 292 288 290 290 293 290 291 289 288 288 292 292 292 291 283 291 281 287 291 291 292 293 294 295 301
306 305 305 302 298 293 296 300 299 292 282 282 286 294 293 291 290 293 297 295 289 288 290 287 288 288 290 288 289 290 295 293 292 290 287 285 283 283 289 287 289 292 293 295 298
305 305 303 299 298 297 299 296 292 287 278 280 285 286 288 289 289 291 292 296 294 288 290 288 291 291 290 290 289 291 292 291 289 290 282 283 284 281 283 285 288 291 293 295 298
305 305 300 297 293 299 297 293 286 284 279 279 281 284 284 285 287 287 287 286 284 283 283 287 288 291 291 291 294 291 288 285 283 282 279 285 280 282 287 289 290 291 293 295 297
304 303 299 298 299 296 293 287 281 273 275 280 282 283 282 284 285 285 285 284 288 286 283 282 282 287 291 288 287 287 286 282 277 279 279 284 278 282 289 291 292 292 293 295 295
302 298 298 297 296 294 289 283 282 277 278 281 280 280 280 282 282 283 282 282 285 286 281 281 282 289 289 290 289 288 284 286 280 276 280 281 284 290 292 290 290 291 293 294 295
296 293 294 295 293 290 286 282 277 277 283 282 279 278 278 278 280 281 281 283 282 285 286 284 281 286 288 291 291 288 288 283 284 277 274 278 280 283 287 288 289 290 291 293 294
294 289 292 293 292 288 282 278 275 280 283 281 278 276 278 279 277 279 279 282 283 284 287 286 284 285 288 286 284 287 286 284 284 281 277 275 279 286 288 289 290 290 291 292 292
290 284 291 291 284 273 278 274 281 281 284 282 283 281 281 280 279 278 279 282 285 284 284 287 283 281 281 289 290 288 286 285 283 278 280 279 279 290 290 290 291 290 290 291 292
286 286 291 289 280 278 275 275 280 281 282 282 281 283 283 280 277 280 280 284 285 285 284 286 282 279 280 284 286 285 287 287 285 284 278 279 279 289 290 289 289 289 289 289 290
286 282 284 287 281 279 275 276 277 283 283 283 282 283 281 278 277 279 280 283 284 284 287 287 281 278 278 279 282 282 285 287 285 283 281 280 280 287 287 287 287 288 288 289 289
284 284 283 279 280 279 278 277 277 277 282 284 281 281 280 276 277 276 277 281 283 283 284 283 279 277 279 278 279 281 283 285 284 284 282 283 282 286 287 287 286 287 288 288 288
282 281 279 278 279 279 279 275 278 279 280 279 278 282 281 278 280 276 279 279 281 281 280 280 276 274 275 276 275 277 281 283 284 286 286 285 285 289 288 286 287 286 287 287 287
286 286 286 280 278 280 279 278 279 282 282 283 282 281 279 280 282 283 284 283 282 280 276 276 273 273 274 269 271 273 275 281 283 286 286 282 287 287 284 285 285 286 286 286 287
Wind_Speed
7 8 9 10 10 10 11 12 12 12 13 14 14 14 13 14 13 1 2 1 3 4 5 10 6 9 4 4 5 3 8 15 26 26 20 4 14 14 9 19 9 6 2 3 18
7 8 9 10 10 11 11 12 13 13 13 13 13 13 12 11 4 4 2 6 5 2 9 11 12 11 4 4 5 9 9 16 17 16 19 8 14 15 11 14 12 8 7 12 17
6 8 9 10 11 12 12 13 13 13 13 13 12 12 11 6 2 5 3 7 8 4 4 5 8 8 8 5 8 7 15 16 14 12 12 11 16 13 16 17 14 15 15 14 14
6 8 9 10 11 13 13 14 14 14 14 13 11 11 8 1 3 5 4 7 9 4 4 7 3 4 7 8 5 10 18 16 15 11 9 15 10 9 13 13 5 6 14 16 15
6 7 9 11 12 13 14 15 15 15 14 14 10 5 3 1 3 5 6 8 7 4 7 7 8 4 5 5 8 13 15 15 14 14 14 15 18 10 13 7 3 8 12 16 15
6 7 9 11 13 14 15 16 17 16 16 12 5 4 1 0 2 4 8 7 5 5 5 5 4 2 4 8 9 5 10 12 11 13 12 16 18 6 7 7 5 11 11 12 12
7 9 11 13 14 16 17 17 17 18 10 3 3 2 1 1 2 7 8 3 2 4 5 5 4 3 0 7 9 13 16 14 15 14 11 10 17 14 7 5 11 13 9 6 6
7 9 11 13 15 17 18 18 17 11 7 3 8 1 4 1 6 6 6 2 4 3 1 3 4 1 3 8 8 11 10 11 10 17 7 6 13 19 13 9 14 13 10 9 10
7 9 11 13 15 16 18 18 11 6 1 10 3 2 2 5 6 6 5 3 4 2 3 5 3 3 4 6 7 7 8 9 7 14 11 7 5 22 19 13 13 14 10 8 8
7 9 11 13 14 16 19 11 3 1 4 2 2 3 2 8 8 8 3 3 3 4 2 1 2 4 1 4 8 13 8 5 4 13 9 7 20 15 18 14 12 14 13 11 8
7 9 10 12 13 14 8 1 2 3 5 3 2 1 4 11 4 4 6 3 0 3 7 3 3 8 8 5 10 9 12 6 5 6 7 8 14 14 11 15 14 14 13 11 8
6 8 10 12 11 9 2 4 2 3 1 1 2 4 3 2 5 9 6 5 5 5 11 3 7 4 6 6 11 11 10 9 12 19 13 13 15 17 20 15 12 12 12 9 10
4 7 9 11 3 4 5 3 1 3 1 1 2 2 5 4 4 9 7 4 4 7 8 6 9 2 3 3 6 8 13 14 11 10 13 4 18 17 16 18 15 13 10 10 8
3 5 7 8 1 1 2 1 2 2 2 3 2 3 3 3 2 4 4 4 2 6 6 4 13 8 10 10 10 10 13 6 11 7 9 11 7 20 19 18 16 13 11 9 10
2 3 4 8 3 1 1 1 3 3 2 3 3 4 6 3 7 8 5 3 5 9 5 5 10 14 14 9 7 4 8 6 6 10 10 18 8 14 14 18 19 14 11 10 8
2 1 2 2 2 2 0 2 3 1 3 1 4 7 3 6 5 7 3 5 4 7 3 3 1 4 9 7 2 5 3 2 1 1 9 14 4 16 14 14 12 12 13 14 7
3 2 3 1 2 2 2 1 1 2 2 1 3 4 2 6 6 9 7 12 8 7 8 7 6 4 5 7 2 11 3 1 3 7 8 8 15 11 13 12 11 11 14 14 12
4 6 5 2 1 3 0 2 2 2 4 1 1 1 3 7 3 7 1 6 12 6 3 7 2 11 10 5 6 6 6 3 4 3 5 11 7 5 6 9 11 12 14 15 15
9 2 2 2 1 1 1 1 2 4 3 5 3 3 2 1 3 3 6 3 4 8 5 5 2 4 3 4 6 6 7 3 7 3 5 5 6 8 8 12 12 14 15 15 15
3 2 2 6 3 2 3 3 3 3 2 2 3 1 3 3 2 3 2 2 3 4 3 4 5 4 5 4 1 4 5 1 3 3 5 5 3 7 8 10 10 13 12 12 13
2 3 2 4 2 3 3 3 3 5 2 2 4 4 3 2 2 1 1 1 2 2 3 3 4 3 2 7 6 7 4 4 3 3 2 6 5 3 4 5 7 9 10 11 12
3 2 3 2 2 1 2 5 3 5 3 2 3 3 4 4 4 3 2 1 2 1 4 3 4 2 2 2 2 1 4 5 2 3 4 3 5 5 4 5 5 7 7 9 9
4 2 2 2 4 4 1 1 3 5 5 5 4 3 2 3 2 3 3 1 2 1 2 3 2 3 1 0 1 2 2 2 3 1 2 1 7 3 5 5 6 7 8 8 10
4 5 1 1 1 5 6 4 5 2 4 3 5 4 4 3 2 5 5 3 1 2 5 3 4 3 4 4 4 3 0 1 3 2 4 2 10 6 5 5 5 6 7 9 10
1 3 3 7 6 5 3 6 7 7 4 5 2 6 6 4 2 4 2 3 2 2 4 2 3 2 1 3 2 4 5 2 3 1 3 7 10 9 6 6 4 3 6 9 11
7 6 1 3 7 10 8 10 12 6 10 6 5 12 8 5 4 8 7 4 3 3 3 2 4 2 3 5 5 4 7 6 3 4 4 4 5 5 5 4 5 5 6 8 9
4 1 2 8 7 8 7 8 12 12 7 3 11 8 8 4 5 7 5 6 4 4 4 3 6 3 3 4 5 6 9 10 4 4 7 7 4 11 8 7 6 6 6 7 7
Wind_Direction
353 356 353 350 348 345 340 337 339 340 336 335 339 337 339 339 333 217 22 54 226 328 331 334 314 352 306 261 235 231 249 248 244 239 244 264 254 215 264 243 206 172 320 97 140
347 346 348 347 342 337 338 335 336 336 332 333 337 334 334 351 330 354 299 225 257 346 338 346 339 335 292 266 241 216 230 246 264 270 246 267 255 269 206 218 212 170 107 134 151
338 343 345 346 340 336 336 334 332 331 326 329 334 328 335 341 243 348 218 263 267 296 316 311 318 309 270 245 222 229 248 255 282 285 301 302 287 288 267 214 214 194 159 162 164
333 342 345 340 338 334 332 330 329 327 322 325 328 323 337 342 7 343 320 315 340 337 295 294 317 282 271 247 237 257 256 274 276 287 300 261 305 283 293 267 173 151 161 166 174
338 341 340 335 334 331 329 327 326 324 321 316 315 335 324 3 344 15 348 332 314 294 286 280 273 271 258 273 243 245 269 279 275 275 273 272 253 273 301 313 216 154 167 179 181
336 334 335 330 329 328 326 325 323 322 319 308 288 133 327 147 42 335 319 316 339 348 306 256 258 70 244 257 245 246 245 263 269 259 260 250 250 311 190 281 137 127 159 179 182
334 331 332 329 328 326 324 324 321 324 322 307 169 133 208 270 2 320 302 300 330 359 340 342 165 195 192 261 255 261 263 258 244 237 251 242 258 227 213 166 106 91 75 95 126
323 324 326 327 327 326 324 321 320 323 309 247 135 187 271 271 321 317 319 17 26 41 358 103 146 232 235 300 267 265 255 261 228 211 204 148 247 227 168 136 104 103 81 68 60
316 321 324 327 328 326 322 320 321 327 67 125 140 278 353 330 349 331 318 2 13 9 23 118 155 265 220 271 269 215 277 240 252 176 135 165 272 165 164 111 109 103 105 97 77
312 319 323 329 329 328 324 324 356 143 81 118 118 225 358 329 325 314 309 73 36 301 244 290 245 279 229 278 321 315 317 39 152 158 137 187 249 99 130 113 92 89 95 80 68
311 318 326 328 328 331 341 336 186 177 50 34 31 328 299 324 282 327 328 79 53 279 356 26 288 357 333 309 292 281 286 270 303 168 142 237 91 62 125 104 80 80 62 58 56
309 317 328 330 332 353 30 64 60 348 272 181 261 276 265 341 295 337 327 61 337 350 352 8 18 329 295 296 291 307 92 141 124 105 105 58 58 94 67 69 75 64 53 51 25
305 319 331 337 44 43 65 81 260 197 308 357 360 345 325 336 321 318 344 84 343 353 355 30 345 268 278 47 338 345 36 74 81 96 85 71 42 69 57 57 53 29 35 40 10
282 314 335 336 275 64 68 294 185 216 94 0 49 73 322 325 257 308 351 69 347 338 328 346 338 328 38 22 6 6 349 359 28 21 55 347 80 43 58 63 56 42 21 23 6
240 305 17 27 107 76 36 270 139 241 337 26 342 334 326 24 326 28 335 92 12 330 289 359 351 353 35 360 344 20 319 355 45 58 66 12 71 16 35 36 32 32 41 43 2
200 298 107 104 80 72 255 134 239 314 236 84 324 354 354 14 12 307 25 49 108 308 327 353 275 43 328 296 326 299 244 260 41 265 49 13 80 30 12 356 14 31 46 59 45
144 96 55 71 86 123 146 246 351 202 4 356 18 5 31 3 359 6 40 59 41 347 1 328 21 26 21 306 90 34 347 296 40 43 51 27 58 37 16 23 22 29 45 53 60
129 112 43 27 88 144 145 63 231 32 234 157 21 352 56 1 27 0 45 72 48 5 340 342 28 3 359 16 320 1 17 40 90 73 79 40 53 48 24 35 41 46 49 54 53
124 66 82 15 357 29 107 110 226 186 152 167 123 87 349 33 339 359 38 79 81 21 1 328 342 336 346 337 332 354 38 343 105 64 79 74 103 98 64 54 45 44 52 50 51
111 106 67 330 347 69 78 232 173 203 160 206 144 151 207 329 48 9 21 333 99 90 49 334 296 9 336 304 30 3 328 138 18 106 104 111 106 104 34 35 38 44 46 41 38
86 131 36 9 309 57 219 202 183 215 237 195 144 132 200 185 96 102 36 51 334 91 109 9 291 354 342 27 360 341 358 49 109 19 104 144 112 29 41 39 56 50 43 41 42
130 170 16 309 91 1 200 167 170 156 190 151 110 121 173 184 128 149 207 16 332 230 100 70 309 339 77 5 302 257 342 317 325 130 71 60 113 39 78 75 71 70 50 43 44
135 100 58 296 179 191 145 158 231 155 195 165 144 167 164 180 141 155 197 220 347 97 48 68 88 287 161 151 193 35 27 353 337 324 78 147 141 94 115 77 55 61 60 57 51
145 141 99 182 356 149 146 194 185 219 206 165 122 127 129 158 1 160 179 171 153 55 77 178 105 287 332 37 350 288 340 112 9 304 139 61 142 167 121 102 74 60 53 53 51
115 199 165 178 210 178 168 157 139 176 235 194 137 208 166 142 154 179 224 194 193 47 82 40 129 349 9 5 300 285 283 280 187 103 267 147 160 167 158 133 109 84 79 63 49
149 164 168 133 139 149 186 206 171 170 163 209 205 187 190 162 194 181 152 215 245 114 97 51 124 125 261 325 343 275 244 249 218 161 141 147 161 146 144 143 130 84 69 57 41
145 120 201 154 147 160 209 180 194 153 210 211 175 153 189 201 114 95 90 88 144 138 120 109 136 148 249 334 311 274 227 203 202 175 149 196 172 156 158 157 125 91 63 44 23